ヴァイサラ-オテルマ彗星

139P/Vaisala-Oterma (2008)

English version
Home page
Updated on March 17, 2010

---------------------------------------------------------------------

・ プロフィール

・ 写真集

・ 軌道要素

Epoch 2008 Apr. 4.0 TT = JDT 2454560.5
T 2008 Apr. 19.34777 TT                                 MPC
q   3.4027928            (2000.0)            P               Q
n   0.10270138     Peri.  165.52239     +0.66927794     -0.74213761
a   4.5159786      Node   242.45213     +0.67759437     +0.62953421
e   0.2464993      Incl.    2.32957     +0.30484899     +0.23004010
P   9.60
From 96 observations 1939 Oct. 7-2007 Sept. 6, mean residual 0".69.

・ 星図

・ 光度変化

        m1 = 11.0 + 5 logΔ + 10.0 log r

---------------------------------------------------------------------

軌道要素はM.P.E.C. 2007-R31に掲載されたものです。
星図は StellaNavigator Ver.2.0 for Windows (アストロアーツ 編著 / アスキー出版局刊) で作成したものです。
光度グラフはComet for Windowsで作成したものです。

---------------------------------------------------------------------

Copyright(C) Seiichi Yoshida (comet@aerith.net). All rights reserved.